Weather observations for the past three days for
MOUNT WILSON
Imperial (Metric)
Date Time (pdt) Wind (mph) Vis. (mi.) Weather Sky Cond. Temperature (ºF) Relative Humidity Wind Chill (°F) Heat Index (°F) Pressure Precipitation (in)
Air Dwpt 6 hour altimeter (in) sea level (mb) 1 hr 3 hr 6 hr
Max. Min.
10 05:20 E 7 G 8 0.00 NULL NULL 69.8 32 25% 0 0.0
10 04:20 E 6 G 6 0.00 NULL NULL 71.6 6.8 8% 0 0.0
10 03:20 NE 1 0.00 NULL NULL 69.8 -14.8 3% 0 0.0
10 02:20 SW 1 0.00 NULL NULL 68 -22 2% 0 0.0
10 01:20 W 1 0.00 NULL NULL 68 -14.8 3% 0 0.0
10 00:20 S 2 0.00 NULL NULL 66.2 3.2 8% 0 0.0
09 23:00 E 7 G 8 0.00 NULL NULL 62.6 44.6 52% 0 0.0
09 21:20 SE 6 G 8 0.00 NULL NULL 62.6 42.8 49% 0 0.0
09 20:10 E 7 G 8 0.00 NULL NULL 62.6 41 45% 0 0.0
09 19:15 NE 1 0.00 NULL NULL 64.4 48.2 56% 0 0.0
09 19:05 Calm 0.00 NULL NULL 68 48.2 49% 0 0.0
09 17:20 SW 2 0.00 NULL NULL 69.8 55.4 60% 0 0.0
09 17:00 W 1 0.00 NULL NULL 68 55.4 64% 0 0.0
09 16:05 W 2 0.00 NULL NULL 71.6 55.4 57% 0 0.0
09 14:20 W 2 0.00 NULL NULL 71.6 57.2 61% 0 0.0
09 14:05 SW 2 0.00 NULL NULL 71.6 55.4 57% 0 0.0
09 13:05 SW 1 0.00 NULL NULL 73.4 50 44% 0 0.0
09 12:05 Calm 0.00 NULL NULL 69.8 50 50% 0 0.0
09 10:20 W 1 0.00 NULL NULL 68 44.6 43% 0 0.0
09 09:20 NW 1 0.00 NULL NULL 66.2 39.2 37% 0 0.0
09 09:05 Calm 0.00 NULL NULL 66.2 41 40% 0 0.0
09 08:10 W 1 0.00 NULL NULL 62.6 35.6 37% 0 0.0
09 07:20 N 1 0.00 NULL NULL 62.6 35.6 37% 0 0.0
09 06:10 N 2 0.00 NULL NULL 60.8 32 34% 0 0.0
09 05:20 N 1 0.00 NULL NULL 60.8 33.8 36% 0 0.0
09 04:20 N 2 0.00 NULL NULL 60.8 35.6 39% 0 0.0
09 03:20 W 3 G 6 0.00 NULL NULL 60.8 33.8 36% 0 0.0
09 02:20 W 2 0.00 NULL NULL 62.6 21.2 20% 0 0.0
09 01:20 W 5 G 8 0.00 NULL NULL 60.8 23 23% 0 0.0
09 00:20 N 2 0.00 NULL NULL 60.8 33.8 36% 0 0.0
08 23:20 N 1 0.00 NULL NULL 62.6 35.6 37% 0 0.0
08 22:20 N 5 G 6 0.00 NULL NULL 62.6 35.6 37% 0 0.0
08 21:20 N 2 0.00 NULL NULL 62.6 32 32% 0 0.0
08 20:20 N 2 0.00 NULL NULL 62.6 39.2 42% 0 0.0
08 19:20 N 1 0.00 NULL NULL 64.4 51.8 64% 0 0.0
08 18:20 SW 2 0.00 NULL NULL 68 55.4 64% 0 0.0
08 16:20 NW 1 0.00 NULL NULL 69.8 55.4 60% 0 0.0
08 15:20 SW 2 G 6 0.00 NULL NULL 69.8 53.6 57% 0 0.0
08 14:20 SW 2 0.00 NULL NULL 71.6 53.6 53% 0 0.0
08 13:20 SW 2 0.00 NULL NULL 71.6 51.8 50% 0 0.0
08 12:20 SW 2 0.00 NULL NULL 69.8 46.4 43% 0 0.0
08 11:20 W 1 0.00 NULL NULL 71.6 41 33% 0 0.0
08 10:20 Calm 0.00 NULL NULL 69.8 35.6 29% 0 0.0
08 09:20 W 3 G 6 0.00 NULL NULL 66.2 28.4 24% 0 0.0
08 08:20 NW 6 G 13 0.00 NULL NULL 64.4 28.4 26% 0 0.0
08 07:20 NW 5 0.00 NULL NULL 64.4 26.6 24% 0 0.0
08 06:20 NW 5 0.00 NULL NULL 64.4 24.8 22% 0 0.0
08 05:20 NW 3 G 8 0.00 NULL NULL 62.6 26.6 25% 0 0.0
08 04:20 W 3 G 7 0.00 NULL NULL 64.4 26.6 24% 0 0.0
08 03:20 NW 3 0.00 NULL NULL 64.4 26.6 24% 0 0.0
08 02:20 NW 6 0.00 NULL NULL 64.4 26.6 24% 0 0.0
08 01:15 N 3 G 7 0.00 NULL NULL 64.4 26.6 24% 0 0.0
08 00:20 N 2 0.00 NULL NULL 62.6 30.2 30% 0 0.0
07 23:20 N 2 0.00 NULL NULL 60.8 33.8 36% 0 0.0
07 22:20 NE 2 0.00 NULL NULL 62.6 33.8 34% 0 0.0
07 21:20 N 3 G 8 0.00 NULL NULL 64.4 33.8 32% 0 0.0
07 20:20 NW 6 0.00 NULL NULL 64.4 37.4 37% 0 0.0
07 19:20 NW 7 G 17 0.00 NULL NULL 66.2 37.4 35% 0 0.0
07 18:20 W 5 G 12 0.00 NULL NULL 68 35.6 30% 0 0.0
07 17:20 W 12 G 17 0.00 NULL NULL 69.8 35.6 29% 0 0.0
07 16:20 SW 10 G 15 0.00 NULL NULL 69.8 41 35% 0 0.0
07 15:20 W 10 G 16 0.00 NULL NULL 71.6 39.2 31% 0 0.0
07 14:20 SW 9 G 18 0.00 NULL NULL 69.8 42.8 38% 0 0.0
07 13:20 SW 9 G 14 0.00 NULL NULL 71.6 39.2 31% 0 0.0
07 12:20 SW 6 0.00 NULL NULL 71.6 39.2 31% 0 0.0
07 11:20 SW 5 G 8 0.00 NULL NULL 69.8 37.4 31% 0 0.0
07 10:15 SW 3 G 6 0.00 NULL NULL 68 37.4 33% 0 0.0
07 09:20 W 1 0.00 NULL NULL 66.2 33.8 30% 0 0.0
07 08:20 SW 1 0.00 NULL NULL 64.4 32 30% 0 0.0
07 07:20 SW 1 0.00 NULL NULL 64.4 30.2 28% 0 0.0
07 06:20 NW 1 0.00 NULL NULL 62.6 30.2 30% 0 0.0
Date Time (pdt) Wind (mph) Vis. (mi.) Weather Sky Cond. Air Dwpt Max. Min. Relative Humidity Wind Chill (°F) Heat Index (°F) altimeter (in) sea level (mb) 1 hr 3 hr 6 hr
6 hour
Temperature (ºF) Pressure Precipitation (in)